ARIANE 44LP DEB, 19219

Orbit data source: Space-Track

ARIANE 44LP DEB, 19219 is space debris in HEO originally from a launch on Wed, 15 Jun 1988 UTC launched from the French Guiana (FRGUI). Debris objects in space refer to the collection of defunct objects orbiting the Earth. Examples of debris include non-operational satellites, rocket bodies, and fragments generated from explosions, collisions, or faulty payload assembly.

Loading next visibility...
Identifier
19219, 1988-051E
Orbit
HEO
Country
Flag of FRFR
Related business
Manufacturer
BAe
Mission
Spacecraft
Bus & Motor
SPELDA, Unknown motor
Mass
200 kg wet, 200 kg dry
Launch date (UTC)
1988-06-15 (38 years ago)
Launch vehicle
Unknown
Launch site
French Guiana (FRGUI)
Object type
Payload
Rocket body
Debris
Shape & HBR
Cyl + Trunc Cone, 2.0 m
Radar Cross Section
11.938 m², Large (>1 m²)

Expand to show TLE details & history
Last TLE update: 2 days ago

TLE from 2 days ago
0 ARIANE 44LP DEB
1 19219U 88051E   26171.11632364  .00001439  00000-0  62322-3 0  9992
2 19219   9.9428 158.6033 6752613 339.2279   2.9109  2.94689024357490
Epoch: 2026-06-20T02:47Z
TLE epoch observation values (Epoch: 2026-06-20T02:47:30.362Z)
Latitude
-0.00003°
Longitude
-151.58789°
Altitude
477.01 km
Speed
9.843 km/s
True Right ascension
10h 34m 29s
True Declination
0° 00' 00"
Sunlit
Object was in daylight at epoch
Visualization orbit readout
Latitude
Unknown
Longitude
Unknown
Altitude
Unknown
Speed
Unknown
Apparent Right ascension
Unknown
Apparent Declination
Unknown
Sunlit
N/A
Visualization observer readout
Local Sidereal Time
00:50:07
Azimuth
Unknown
Elevation
Unknown
Doppler factor
Unknown
Orbital elements
Apogee altitude
28,058.166 km
Perigee altitude
297.12 km
Semi-major axis
20,555.78 km
Eccentricity
0.67526
Inclination
9.9428°
RAAN
158.6033°
Arg. of periapsis
339.2279°
True anomaly
20.02549°
Mean anomaly
2.9109°
Eccentric anomaly
8.88974°
Mean motion
0.73645 °/min
Orbital period
488.83 mins
BSTAR
0.00062322
Loading maneuver chart data...
Computing Atmospheric mass density...
Loading historical data...
Loading historical data...
Loading historical data...
Loading historical data...
Loading historical data...
Loading historical data...
Loading historical data...

Documentation

Showing up to 5 results
|